Regional Weather Roundup
Issued by NWS

Home | Current Version | Previous Version | Text Only | Print | Product List | Glossary Off
Versions: 1 2 3 4 5 6 7 8 9 10 11 12 13 14 15 16 17 18 19 20 21 22 23 24 25 26 27 28 29 30 31 32 33 34 35 36 37 38 39 40 41 42 43 44 45 46 47 48 49 50

000
ASUS44 KMEG 211510
RWRTN
TENNESSEE HOURLY STATE WEATHER ROUNDUP
NATIONAL WEATHER SERVICE MEMPHIS TN
1000 AM CDT SUN SEP 21 2014

TNZ002-004-019-021-049-052-054-088>092-211600-
WEST TENNESSEE

CITY           SKY/WX    TMP DP  RH WIND       PRES   REMARKS
MEMPHIS INTL   MOSUNNY   81  68  64 W6        30.05R
NWS MEMPHIS      N/A     80 N/A N/A MISG        N/A
JACKSON        SUNNY     79  69  71 W8        30.03R
DYERSBURG      CLOUDY    77  63  61 W10       30.04R
UNION CITY     PTSUNNY   70  70 100 CALM      30.01R
PARIS          MOSUNNY   73  66  78 W7        30.03R
HUNTINGDON     CLOUDY    75  67  76 W9        30.02R
LEXINGTON      SUNNY     81  68  65 W9        30.02S
SAVANNAH       SUNNY     79  70  73 SW8       30.04F
$$

TNZ008-025-027-028-033-062-065-066-211600-
NORTH MIDDLE TENNESSEE

CITY           SKY/WX    TMP DP  RH WIND       PRES   REMARKS
NASHVILLE      PTSUNNY   80  67  64 W9        29.99S
DICKSON        PTSUNNY   75  66  73 W13       30.01R
PORTLAND       MOSUNNY   72  66  83 W6        29.98R
CLARKSVILLE    PTSUNNY   76  69  79 W12       29.97F
LEBANON        PTSUNNY   75  66  73 SW10      29.98S
SMYRNA         PTSUNNY   79  67  66 W14       30.00S
MURFREESBORO   PTSUNNY   79  65  62 W8        30.00S
COOKEVILLE     MOSUNNY   73  66  78 SW6       30.02S
LIVINGSTON     MOSUNNY   70  64  81 SW12      30.01S
GALLATIN       PTSUNNY   75  71  87 W5        29.99R
CROSSVILLE     CLOUDY    74  63  68 W8        30.06R
$$

TNZ061-075-076-078-094-096-097-211600-
SOUTH MIDDLE TENNESSEE

CITY           SKY/WX    TMP DP  RH WIND       PRES   REMARKS
LEWISBURG      PTSUNNY   80  67  64 SW9       30.02S
FAYETTEVILLE   MOSUNNY   75  64  69 SW10      30.06S
WINCHESTER     MOSUNNY   75  64  69 VRB7      30.06R
MCMINNVILLE    MOSUNNY   75  70  83 SW9       30.04S
COLUMBIA       SUNNY     81  70  69 W10       30.01S
SHELBYVILLE    MOSUNNY   81  66  61 W13       30.04S
$$

TNZ017-018-042-046-047-211600-
NORTHEAST TENNESSEE

CITY           SKY/WX    TMP DP  RH WIND       PRES   REMARKS
TRI CITIES     MOSUNNY   72  60  66 VRB3      30.02F
ELIZABETHTON   CLOUDY    66  59  77 CALM      30.03F
$$

TNZ012-013-036-069-073-074-211600-
CENTRAL EAST TENNESSEE

CITY           SKY/WX    TMP DP  RH WIND       PRES   REMARKS
KNOXVILLE      MOSUNNY   77  62  59 SW16      30.01R
OAK RIDGE      MOSUNNY   74  63  68 VRB6      30.03S
GATLINBURG     MOSUNNY   79  63  57 SW13      30.00S
MORRISTOWN     SUNNY     75  63  64 SW12      30.02S
$$

TNZ083-085-099-211600-
SOUTHEAST TENNESSEE

CITY           SKY/WX    TMP DP  RH WIND       PRES   REMARKS
CHATTANOOGA    MOSUNNY   78  63  59 S5        30.04R
$$

SKY/WX REPORTED AS FAIR MEANS FEW OR NO CLOUDS BELOW
12 THOUSAND FEET.



USA.gov is the U.S. government's official web portal to all federal, state and local government web resources and services.